Regional Weather Roundup
Issued by NWS

Home | Current Version | Previous Version | Graphics & Text | Print | Product List | Glossary On
Versions: 1 2 3 4 5 6 7 8 9 10 11 12 13 14 15 16 17 18 19 20 21 22 23 24 25 26 27 28 29 30 31 32 33 34 35 36 37 38 39 40 41 42 43 44 45 46 47 48 49 50
000
ASUS43 KLSX 101657
RWRMO

WEATHER SUMMARY FOR MISSOURI
NATIONAL WEATHER SERVICE SPRINGFIELD MO
1100 AM CST SAT DEC 10 2016

NOTE: "FAIR" INDICATES FEW OR NO CLOUDS BELOW 12,000 FEET WITH NO
       SIGNIFICANT WEATHER AND/OR OBSTRUCTIONS TO VISIBILITY.
       CURRENT SKY AND/OR WEATHER CONDITIONS ARE NOT AVAILABLE FOR
       CHILLICOTHE AND FARMINGTON.

MOZ001>031-035>038-043-044-053-054-101800-
...NORTHERN AND WESTERN MISSOURI...

CITY           SKY/WX    TMP DP  RH WIND       PRES   REMARKS
KANSAS CTY INT PTSUNNY   32  16  51 SE10      30.36F WCI  24
LEE`S SUMMIT   CLOUDY    31  19  61 MISG      30.38F
ST JOSEPH      CLOUDY    30  15  53 SE8       30.38F WCI  22
CHILLICOTHE      N/A     29  15  56 S7        30.43F WCI  22

$$
MOZ066>068-077>081-088>096-101>105-101800-
...SOUTHWEST MISSOURI...

CITY           SKY/WX    TMP DP  RH WIND       PRES   REMARKS
SPRINGFIELD    CLOUDY    34  18  52 SE10      30.39F WCI  26
JOPLIN         CLOUDY    39  16  39 S9        30.38F
BRANSON        PTSUNNY   36  19  51 SE12      30.43F WCI  27

$$
MOZ032>034-039>042-045>050-055>058-069>072-101800-
...CENTRAL MISSOURI...

CITY           SKY/WX    TMP DP  RH WIND       PRES   REMARKS
COLUMBIA       NOT AVBL
JEFFERSON CITY CLOUDY    30  15  53 SE8       30.47F WCI  22
ROLLA          CLOUDY    29  17  61 S8        30.43F WCI  21
SEDALIA        CLOUDY    33  17  51 S9        30.43F WCI  25
WARRENSBURG    CLOUDY    32  19  59 SE7       30.42F WCI  26

$$
MOZ051-052-059>065-101800-
...EAST CENTRAL MISSOURI...

CITY           SKY/WX    TMP DP  RH WIND       PRES   REMARKS
ST LOUIS INTL  CLOUDY    31  14  49 SE10      30.51F WCI  22

$$
MOZ072>076-082>087-097>100-106>115-101800-
...SOUTH CENTRAL AND SOUTHEAST MISSOURI...

CITY           SKY/WX    TMP DP  RH WIND       PRES   REMARKS
CAPE GIRARDEAU MOSUNNY   33  21  61 S6        30.57F WCI  28
POPLAR BLUFF   MOSUNNY   32  22  66 SE6       30.57F WCI  26
WEST PLAINS    CLOUDY    30  17  58 S12       30.49F WCI  20

$$



USA.gov is the U.S. government's official web portal to all federal, state and local government web resources and services.